CZ-6A DEB, 56284

Orbit data source: Space-Track

CZ-6A DEB, 56284 is space debris in SSO originally from a launch on Fri, 11 Nov 2022 UTC launched from the Taiyaun Space Center, China (TSC). Debris objects in space refer to the collection of defunct objects orbiting the Earth. Examples of debris include non-operational satellites, rocket bodies, and fragments generated from explosions, collisions, or faulty payload assembly.

Loading next visibility...
Identifier
56284, 2022-151ADC
Orbit
SSO
Country
Flag of CNCN / PRC
Related business
Manufacturer
SAST
Mission
Spacecraft
Bus & Motor
Unknown
Mass
Unknown
Launch date (UTC)
2022-11-11 (3 years ago)
Launch vehicle
Unknown
Launch site
Taiyaun Space Center, China (TSC)
Object type
Payload
Rocket body
Debris
Shape & HBR
Unknown shape, 0.1 m
Radar Cross Section
Small (<0.1 m²)

Expand to show TLE details & history
Last TLE update: 1 day ago

TLE from 1 day ago
0 CZ-6A DEB
1 56284U 22151ADC 25349.31351887  .00003480  00000-0  74666-3 0  9992
2 56284  98.5394  17.6391 0137109 163.0695 197.5144 14.53575897143163
Epoch: 2025-12-15T07:31Z
TLE epoch observation values (Epoch: 2025-12-15T07:31:28.030Z)
Latitude
0.00001°
Longitude
-179.44157°
Altitude
809.829 km
Speed
7.399 km/s
True Right ascension
01h 10m 33s
True Declination
0° 00' 00"
Sunlit
Object was in daylight at epoch
Visualization orbit readout
Latitude
Unknown
Longitude
Unknown
Altitude
Unknown
Speed
Unknown
Apparent Right ascension
Unknown
Apparent Declination
Unknown
Sunlit
N/A
Visualization observer readout
Local Sidereal Time
11:31:29
Azimuth
Unknown
Elevation
Unknown
Doppler factor
Unknown
Orbital elements
Apogee altitude
808.298 km
Perigee altitude
613.898 km
Semi-major axis
7,089.235 km
Eccentricity
0.01371
Inclination
98.5394°
RAAN
17.6391°
Arg. of periapsis
163.0695°
True anomaly
197.04918°
Mean anomaly
197.5144°
Eccentric anomaly
197.28104°
Mean motion
3.63617 °/min
Orbital period
99.01 mins
BSTAR
0.00074666
Loading maneuver chart data...
Computing Atmospheric mass density...
Loading historical data...
Loading historical data...
Loading historical data...
Loading historical data...
Loading historical data...
Loading historical data...
Loading historical data...

Documentation

Showing up to 5 results
|